WZZ411 EDNY-LYBE

Flight info

Callsign WZZ411
Flight time 1h 22m
Altitude 37000
Route BEMKI1W BEMKI L607 XEBIX Z2 TUNUM Z204 GEDSO DCT PODET DCT LAKIK DCT RIGMU
Aircraft A321/M-SDE1E2E3FGIJ1J4RWXY/LB1

Departure

Time 2026-04-24 11:46
Airport Bodensee Airport Friedrichshafen (EDNY)

Arrival

Time 2026-04-24 13:08
Airport Belgrade Nikola Tesla Airport (LYBE)
Time Latitude Longitude Altitude Speed Heading
2026-04-24 10:45 47.67250 9.52061 1367 ft 0 kts 188°
2026-04-24 10:48 47.67250 9.52062 1367 ft 0 kts 188°
2026-04-24 11:18 47.67251 9.52062 1367 ft 0 kts 188°
2026-04-24 11:43 47.67252 9.52047 1367 ft 3 kts 303°
2026-04-24 11:44 47.67304 9.52091 1366 ft 14 kts 53°
2026-04-24 11:44 47.67360 9.52243 1367 ft 19 kts 59°
2026-04-24 11:44 47.67428 9.52395 1369 ft 16 kts 57°
2026-04-24 11:44 47.67481 9.52529 1369 ft 14 kts 61°
2026-04-24 11:45 47.67547 9.52587 1370 ft 10 kts 347°
2026-04-24 11:45 47.67593 9.52554 1373 ft 6 kts 329°
2026-04-24 11:45 47.67633 9.52501 1374 ft 10 kts 297°
2026-04-24 11:45 47.67558 9.52240 1368 ft 63 kts 240°
2026-04-24 11:46 47.67213 9.51358 1364 ft 131 kts 240°
2026-04-24 11:46 47.66676 9.49976 1535 ft 165 kts 240°
2026-04-24 11:46 47.66096 9.48518 2318 ft 163 kts 239°
2026-04-24 11:46 47.65524 9.47054 2944 ft 169 kts 241°
2026-04-24 11:47 47.64885 9.45404 3098 ft 201 kts 241°
2026-04-24 11:47 47.64123 9.43524 3134 ft 228 kts 232°
2026-04-24 11:47 47.62749 9.42219 3562 ft 242 kts 188°
2026-04-24 11:47 47.61158 9.42552 4490 ft 230 kts 148°
2026-04-24 11:48 47.60110 9.44211 5303 ft 225 kts 110°
2026-04-24 11:48 47.59908 9.46508 6027 ft 227 kts 85°
2026-04-24 11:48 47.60107 9.48857 6752 ft 231 kts 79°
2026-04-24 11:48 47.60381 9.51196 7441 ft 234 kts 79°
2026-04-24 11:49 47.60639 9.53625 8168 ft 238 kts 80°
2026-04-24 11:49 47.60847 9.56039 8877 ft 241 kts 81°
2026-04-24 11:49 47.61179 9.58503 9455 ft 251 kts 73°
2026-04-24 11:49 47.61644 9.61138 9743 ft 275 kts 74°
2026-04-24 11:50 47.62114 9.63976 10208 ft 288 kts 75°
2026-04-24 11:50 47.62586 9.66961 10547 ft 308 kts 75°
2026-04-24 11:50 47.63081 9.70180 10746 ft 331 kts 75°
2026-04-24 11:50 47.63589 9.73563 11259 ft 340 kts 76°
2026-04-24 11:51 47.64100 9.77009 11927 ft 344 kts 76°
2026-04-24 11:51 47.64614 9.80466 12615 ft 348 kts 76°
2026-04-24 11:51 47.65139 9.83988 13305 ft 351 kts 75°
2026-04-24 11:51 47.65671 9.87546 13981 ft 355 kts 75°
2026-04-24 11:52 47.66176 9.91152 14594 ft 359 kts 80°
2026-04-24 11:52 47.66229 9.94879 15201 ft 365 kts 94°
2026-04-24 11:52 47.65668 9.98578 15827 ft 371 kts 109°
2026-04-24 11:52 47.64626 10.02104 16465 ft 374 kts 113°
2026-04-24 11:53 47.63560 10.05577 17104 ft 376 kts 113°
2026-04-24 11:53 47.62477 10.09133 17749 ft 379 kts 112°
2026-04-24 11:53 47.61391 10.12715 18356 ft 382 kts 112°
2026-04-24 11:53 47.60295 10.16331 18887 ft 386 kts 112°
2026-04-24 11:54 47.59189 10.19972 19436 ft 388 kts 112°
2026-04-24 11:54 47.58068 10.23646 19993 ft 391 kts 112°
2026-04-24 11:54 47.56893 10.27244 20534 ft 395 kts 118°
2026-04-24 11:54 47.55300 10.30591 21069 ft 400 kts 129°
2026-04-24 11:55 47.53293 10.33466 21624 ft 405 kts 140°
2026-04-24 11:55 47.51019 10.35964 22192 ft 408 kts 141°
2026-04-24 11:55 47.48716 10.38469 22721 ft 411 kts 141°
2026-04-24 11:55 47.46430 10.40961 23228 ft 414 kts 141°
2026-04-24 11:56 47.44124 10.43541 23738 ft 416 kts 137°
2026-04-24 11:56 47.42090 10.46568 24134 ft 415 kts 126°
2026-04-24 11:56 47.40473 10.50089 24540 ft 413 kts 115°
2026-04-24 11:56 47.39320 10.53967 24943 ft 411 kts 105°
2026-04-24 11:57 47.38632 10.58047 25343 ft 411 kts 98°
2026-04-24 11:57 47.38067 10.62193 25696 ft 414 kts 98°
2026-04-24 11:57 47.37487 10.66386 26102 ft 416 kts 98°
2026-04-24 11:57 47.37099 10.69160 26369 ft 417 kts 99°
2026-04-24 11:58 47.36318 10.74730 26895 ft 420 kts 99°
2026-04-24 11:58 47.35723 10.78967 27279 ft 422 kts 99°
2026-04-24 11:58 47.35319 10.81840 27548 ft 424 kts 99°
2026-04-24 11:58 47.34726 10.86053 27923 ft 426 kts 98°
2026-04-24 11:59 47.34122 10.90351 28311 ft 428 kts 98°
2026-04-24 11:59 47.33513 10.94662 28619 ft 431 kts 98°
2026-04-24 11:59 47.32896 10.99010 28996 ft 433 kts 99°
2026-04-24 11:59 47.32277 11.03361 29344 ft 435 kts 99°
2026-04-24 12:00 47.31653 11.07738 29675 ft 437 kts 99°
2026-04-24 12:00 47.31023 11.12146 30023 ft 439 kts 99°
2026-04-24 12:00 47.30390 11.16561 30345 ft 441 kts 99°
2026-04-24 12:00 47.29763 11.20937 30640 ft 443 kts 99°
2026-04-24 12:01 47.29123 11.25395 30898 ft 446 kts 99°
2026-04-24 12:01 47.28478 11.29872 31192 ft 447 kts 99°
2026-04-24 12:01 47.27823 11.34372 31539 ft 448 kts 99°
2026-04-24 12:01 47.27166 11.38855 31958 ft 447 kts 99°
2026-04-24 12:02 47.26516 11.43275 32351 ft 446 kts 99°
2026-04-24 12:02 47.25775 11.47713 32737 ft 447 kts 105°
2026-04-24 12:02 47.24590 11.51971 33117 ft 451 kts 114°
2026-04-24 12:02 47.22956 11.55922 33515 ft 453 kts 122°
2026-04-24 12:03 47.21132 11.59719 33898 ft 453 kts 122°
2026-04-24 12:03 47.19325 11.63504 34318 ft 451 kts 122°
2026-04-24 12:03 47.17546 11.67241 34647 ft 450 kts 122°
2026-04-24 12:03 47.15741 11.71018 34973 ft 450 kts 122°
2026-04-24 12:04 47.13936 11.74780 35289 ft 449 kts 122°
2026-04-24 12:04 47.12135 11.78529 35612 ft 449 kts 122°
2026-04-24 12:04 47.10327 11.82286 35771 ft 452 kts 122°
2026-04-24 12:04 47.08614 11.86172 35899 ft 452 kts 115°
2026-04-24 12:05 47.07326 11.90304 36021 ft 451 kts 106°
2026-04-24 12:05 47.06349 11.94695 36145 ft 453 kts 104°
2026-04-24 12:05 47.05381 11.99114 36291 ft 455 kts 105°
2026-04-24 12:05 47.04393 12.03557 36529 ft 456 kts 105°
2026-04-24 12:06 47.03411 12.07923 36728 ft 456 kts 105°
2026-04-24 12:06 47.02414 12.12332 36965 ft 455 kts 105°
2026-04-24 12:06 47.01416 12.16743 37107 ft 456 kts 105°
2026-04-24 12:06 47.00418 12.21160 37148 ft 456 kts 105°
2026-04-24 12:07 46.98420 12.29987 37142 ft 455 kts 105°
2026-04-24 12:07 46.96421 12.38787 37143 ft 455 kts 105°
2026-04-24 12:08 46.94439 12.47538 37140 ft 455 kts 105°
2026-04-24 12:08 46.92429 12.56357 37124 ft 457 kts 105°
2026-04-24 12:09 46.90393 12.65190 37141 ft 458 kts 105°
2026-04-24 12:09 46.88347 12.74022 37126 ft 458 kts 105°
2026-04-24 12:10 46.86316 12.82798 37124 ft 457 kts 105°
2026-04-24 12:11 46.83258 12.95983 37120 ft 457 kts 105°
2026-04-24 12:11 46.81214 13.04718 37113 ft 456 kts 105°
2026-04-24 12:12 46.79149 13.13486 37126 ft 456 kts 105°
2026-04-24 12:12 46.77090 13.22256 37123 ft 455 kts 105°
2026-04-24 12:13 46.75038 13.30961 37113 ft 455 kts 105°
2026-04-24 12:13 46.72965 13.39699 37108 ft 454 kts 105°
2026-04-24 12:14 46.70896 13.48373 37106 ft 455 kts 105°
2026-04-24 12:14 46.68808 13.57098 37116 ft 455 kts 105°
2026-04-24 12:15 46.66725 13.65766 37104 ft 455 kts 105°
2026-04-24 12:15 46.64624 13.74466 37100 ft 454 kts 105°
2026-04-24 12:16 46.62525 13.83113 37098 ft 454 kts 105°
2026-04-24 12:16 46.60419 13.91789 37105 ft 454 kts 105°
2026-04-24 12:17 46.58307 14.00431 37102 ft 454 kts 105°
2026-04-24 12:17 46.56181 14.09060 37107 ft 454 kts 105°
2026-04-24 12:18 46.54051 14.17716 37108 ft 454 kts 105°
2026-04-24 12:18 46.51932 14.26320 37128 ft 454 kts 105°
2026-04-24 12:19 46.49791 14.34948 37113 ft 453 kts 105°
2026-04-24 12:19 46.47647 14.43553 37105 ft 451 kts 105°
2026-04-24 12:20 46.45515 14.52105 37097 ft 452 kts 105°
2026-04-24 12:20 46.43368 14.60663 37097 ft 452 kts 105°
2026-04-24 12:21 46.41211 14.69225 37109 ft 451 kts 105°
2026-04-24 12:21 46.39059 14.77743 37100 ft 450 kts 105°
2026-04-24 12:22 46.36893 14.86302 37095 ft 451 kts 106°
2026-04-24 12:22 46.34733 14.94792 37095 ft 451 kts 105°
2026-04-24 12:23 46.32555 15.03279 37108 ft 451 kts 105°
2026-04-24 12:23 46.30375 15.11766 37102 ft 451 kts 105°
2026-04-24 12:24 46.28183 15.20298 37099 ft 451 kts 105°
2026-04-24 12:24 46.25994 15.28762 37097 ft 451 kts 106°
2026-04-24 12:25 46.23799 15.37214 37116 ft 451 kts 105°
2026-04-24 12:25 46.21585 15.45718 37113 ft 451 kts 105°
2026-04-24 12:26 46.19369 15.54205 37110 ft 451 kts 106°
2026-04-24 12:26 46.17155 15.62646 37108 ft 452 kts 105°
2026-04-24 12:27 46.15135 15.71196 37114 ft 449 kts 102°
2026-04-24 12:27 46.13342 15.79818 37118 ft 449 kts 102°
2026-04-24 12:28 46.11552 15.88401 37113 ft 449 kts 102°
2026-04-24 12:28 46.09672 15.96982 37115 ft 449 kts 103°
2026-04-24 12:29 46.07752 16.05539 37118 ft 449 kts 103°
2026-04-24 12:29 46.05838 16.14101 37129 ft 449 kts 103°
2026-04-24 12:30 46.03935 16.22628 37124 ft 448 kts 103°
2026-04-24 12:30 46.02021 16.31190 37121 ft 448 kts 103°
2026-04-24 12:31 46.00105 16.39738 37117 ft 448 kts 103°
2026-04-24 12:31 45.98194 16.48214 37129 ft 448 kts 103°
2026-04-24 12:32 45.96257 16.56760 37124 ft 448 kts 103°
2026-04-24 12:32 45.94306 16.65281 37117 ft 448 kts 103°
2026-04-24 12:33 45.92367 16.73731 37112 ft 448 kts 103°
2026-04-24 12:33 45.90420 16.82238 37131 ft 448 kts 103°
2026-04-24 12:34 45.88483 16.90692 37119 ft 448 kts 103°
2026-04-24 12:34 45.86513 16.99225 37119 ft 449 kts 103°
2026-04-24 12:35 45.84545 17.07680 37118 ft 449 kts 104°
2026-04-24 12:35 45.82561 17.16176 37133 ft 448 kts 104°
2026-04-24 12:36 45.80584 17.24624 37120 ft 449 kts 104°
2026-04-24 12:36 45.78594 17.33096 37115 ft 449 kts 104°
2026-04-24 12:37 45.76583 17.41606 37113 ft 449 kts 104°
2026-04-24 12:37 45.74594 17.50023 37112 ft 449 kts 104°
2026-04-24 12:38 45.72572 17.58518 37117 ft 449 kts 104°
2026-04-24 12:38 45.70569 17.66942 37110 ft 449 kts 104°
2026-04-24 12:39 45.66521 17.83854 37107 ft 449 kts 104°
2026-04-24 12:40 45.64483 17.92301 37115 ft 450 kts 104°
2026-04-24 12:40 45.62426 18.00772 37101 ft 450 kts 104°
2026-04-24 12:41 45.60395 18.09181 37094 ft 448 kts 101°
2026-04-24 12:41 45.59088 18.17831 37099 ft 445 kts 97°
2026-04-24 12:42 45.57860 18.26519 37118 ft 446 kts 97°
2026-04-24 12:42 45.56625 18.35147 37099 ft 446 kts 97°
2026-04-24 12:43 45.55373 18.43827 37090 ft 446 kts 97°
2026-04-24 12:43 45.54113 18.52516 37098 ft 446 kts 97°
2026-04-24 12:44 45.52855 18.61126 37063 ft 442 kts 97°
2026-04-24 12:44 45.52225 18.65409 36500 ft 440 kts 97°
2026-04-24 12:44 45.51594 18.69703 35709 ft 443 kts 97°
2026-04-24 12:44 45.50962 18.74000 34999 ft 443 kts 97°
2026-04-24 12:45 45.50331 18.78286 34427 ft 441 kts 97°
2026-04-24 12:45 45.49702 18.82558 33739 ft 440 kts 97°
2026-04-24 12:45 45.49074 18.86802 33263 ft 435 kts 97°
2026-04-24 12:45 45.48454 18.90955 32783 ft 431 kts 97°
2026-04-24 12:46 45.47832 18.95108 32292 ft 426 kts 97°
2026-04-24 12:46 45.47211 18.99242 31819 ft 422 kts 97°
2026-04-24 12:46 45.46600 19.03279 31332 ft 419 kts 98°
2026-04-24 12:46 45.45985 19.07329 30855 ft 415 kts 98°
2026-04-24 12:47 45.45376 19.11340 30376 ft 411 kts 98°
2026-04-24 12:47 45.44776 19.15302 29887 ft 408 kts 98°
2026-04-24 12:47 45.44180 19.19239 29409 ft 403 kts 98°
2026-04-24 12:47 45.43592 19.23111 28970 ft 398 kts 98°
2026-04-24 12:48 45.43010 19.26914 28539 ft 393 kts 98°
2026-04-24 12:48 45.42437 19.30666 28114 ft 389 kts 98°
2026-04-24 12:48 45.41794 19.34398 27693 ft 387 kts 104°
2026-04-24 12:48 45.41103 19.36804 27414 ft 389 kts 112°
2026-04-24 12:49 45.39671 19.40027 27001 ft 392 kts 124°
2026-04-24 12:49 45.37752 19.42818 26576 ft 396 kts 137°
2026-04-24 12:49 45.35472 19.45043 26142 ft 398 kts 144°
2026-04-24 12:49 45.33125 19.47126 25705 ft 396 kts 144°
2026-04-24 12:50 45.30787 19.49195 25279 ft 395 kts 144°
2026-04-24 12:50 45.28453 19.51265 24844 ft 393 kts 144°
2026-04-24 12:50 45.26152 19.53287 24397 ft 393 kts 147°
2026-04-24 12:50 45.23664 19.54906 23965 ft 396 kts 158°
2026-04-24 12:51 45.20997 19.55963 23516 ft 396 kts 162°
2026-04-24 12:51 45.18348 19.56913 23056 ft 394 kts 162°
2026-04-24 12:51 45.15703 19.57862 22622 ft 391 kts 163°
2026-04-24 12:51 45.13073 19.58805 22170 ft 388 kts 163°
2026-04-24 12:52 45.10467 19.59741 21722 ft 385 kts 163°
2026-04-24 12:52 45.07867 19.60673 21281 ft 382 kts 163°
2026-04-24 12:52 45.05300 19.61596 20832 ft 380 kts 163°
2026-04-24 12:52 45.02849 19.62639 20398 ft 374 kts 154°
2026-04-24 12:53 45.00716 19.64218 19995 ft 368 kts 142°
2026-04-24 12:53 44.98756 19.66484 19565 ft 360 kts 130°
2026-04-24 12:53 44.97203 19.69199 19144 ft 352 kts 118°
2026-04-24 12:53 44.95943 19.72107 18733 ft 349 kts 117°
2026-04-24 12:54 44.94679 19.75024 18321 ft 347 kts 117°
2026-04-24 12:54 44.93413 19.77931 17869 ft 344 kts 117°
2026-04-24 12:54 44.92153 19.80802 17454 ft 341 kts 118°
2026-04-24 12:54 44.90922 19.83600 17042 ft 338 kts 118°
2026-04-24 12:55 44.89682 19.86427 16623 ft 336 kts 118°
2026-04-24 12:55 44.88454 19.89235 16214 ft 334 kts 118°
2026-04-24 12:55 44.87247 19.92002 15804 ft 333 kts 118°
2026-04-24 12:55 44.86034 19.94775 15395 ft 331 kts 118°
2026-04-24 12:56 44.84823 19.97536 14971 ft 330 kts 118°
2026-04-24 12:56 44.83616 20.00288 14582 ft 329 kts 118°
2026-04-24 12:56 44.82430 20.02990 14182 ft 328 kts 118°
2026-04-24 12:56 44.81224 20.05732 13770 ft 327 kts 119°
2026-04-24 12:57 44.80023 20.08452 13356 ft 326 kts 119°
2026-04-24 12:57 44.78825 20.11156 12941 ft 323 kts 119°
2026-04-24 12:57 44.77637 20.13834 12552 ft 322 kts 119°
2026-04-24 12:57 44.76463 20.16480 12221 ft 318 kts 119°
2026-04-24 12:58 44.75305 20.19096 11749 ft 310 kts 120°
2026-04-24 12:58 44.74196 20.21598 11222 ft 299 kts 120°
2026-04-24 12:58 44.73105 20.24059 10662 ft 294 kts 120°
2026-04-24 12:58 44.72028 20.26491 10134 ft 291 kts 120°
2026-04-24 12:59 44.70955 20.28918 9567 ft 290 kts 120°
2026-04-24 12:59 44.69906 20.31278 8989 ft 287 kts 120°
2026-04-24 12:59 44.68850 20.33647 8433 ft 283 kts 120°
2026-04-24 12:59 44.67810 20.35974 7864 ft 279 kts 120°
2026-04-24 13:00 44.66791 20.38260 7324 ft 278 kts 120°
2026-04-24 13:00 44.65759 20.40574 6783 ft 277 kts 119°
2026-04-24 13:00 44.64744 20.42848 6244 ft 273 kts 120°
2026-04-24 13:00 44.63738 20.45108 5665 ft 273 kts 122°
2026-04-24 13:01 44.62733 20.47358 5107 ft 270 kts 122°
2026-04-24 13:01 44.61757 20.49550 4549 ft 267 kts 120°
2026-04-24 13:01 44.61145 20.52031 4367 ft 275 kts 95°
2026-04-24 13:01 44.61321 20.54687 4237 ft 272 kts 69°
2026-04-24 13:02 44.62247 20.56899 4099 ft 257 kts 43°
2026-04-24 13:02 44.63641 20.58308 3961 ft 240 kts 19°
2026-04-24 13:02 44.65191 20.58822 3988 ft 221 kts
2026-04-24 13:02 44.66706 20.58990 4007 ft 221 kts 359°
2026-04-24 13:03 44.68208 20.58777 4007 ft 216 kts 340°
2026-04-24 13:03 44.69529 20.57779 3952 ft 217 kts 318°
2026-04-24 13:03 44.70476 20.56156 3837 ft 215 kts 299°
2026-04-24 13:03 44.71234 20.54325 3448 ft 218 kts 300°
2026-04-24 13:04 44.72021 20.52469 3157 ft 220 kts 301°
2026-04-24 13:04 44.72807 20.50682 3103 ft 212 kts 302°
2026-04-24 13:04 44.73562 20.49002 3059 ft 194 kts 303°
2026-04-24 13:04 44.74236 20.47511 2934 ft 173 kts 302°
2026-04-24 13:05 44.74850 20.46148 2673 ft 157 kts 302°
2026-04-24 13:05 44.75424 20.44870 2461 ft 152 kts 302°
2026-04-24 13:05 44.75972 20.43650 2245 ft 146 kts 300°
2026-04-24 13:05 44.76515 20.42436 2075 ft 146 kts 300°
2026-04-24 13:06 44.77052 20.41232 1867 ft 145 kts 301°
2026-04-24 13:06 44.77581 20.40038 1667 ft 141 kts 301°
2026-04-24 13:06 44.78096 20.38880 1473 ft 139 kts 302°
2026-04-24 13:06 44.78608 20.37731 1293 ft 139 kts 302°
2026-04-24 13:07 44.79108 20.36612 1125 ft 132 kts 300°
2026-04-24 13:07 44.79592 20.35530 900 ft 130 kts 300°
2026-04-24 13:07 44.80081 20.34435 690 ft 131 kts 300°
2026-04-24 13:07 44.80557 20.33356 483 ft 128 kts 301°
2026-04-24 13:08 44.81024 20.32293 336 ft 128 kts 300°
2026-04-24 13:08 44.81452 20.31336 305 ft 97 kts 301°
2026-04-24 13:08 44.81717 20.30729 309 ft 45 kts 301°
2026-04-24 13:09 44.82028 20.30073 306 ft 37 kts 301°
2026-04-24 13:09 44.82134 20.29825 310 ft 17 kts 300°
2026-04-24 13:09 44.82149 20.29691 308 ft 13 kts 223°
2026-04-24 13:09 44.82126 20.29580 308 ft 13 kts 279°
2026-04-24 13:10 44.82086 20.29515 310 ft 9 kts 198°
2026-04-24 13:10 44.82024 20.29471 308 ft 11 kts 208°
2026-04-24 13:10 44.81953 20.29406 308 ft 13 kts 214°
2026-04-24 13:10 44.81879 20.29344 308 ft 8 kts 210°
2026-04-24 13:11 44.81826 20.29301 308 ft 10 kts 211°
2026-04-24 13:11 44.81793 20.29271 307 ft 4 kts 213°
2026-04-24 13:11 44.81764 20.29244 308 ft 6 kts 213°
2026-04-24 13:11 44.81735 20.29203 307 ft 5 kts 242°
2026-04-24 13:12 44.81744 20.29172 307 ft 3 kts 326°
2026-04-24 13:12 44.81765 20.29153 307 ft 5 kts 318°
2026-04-24 13:12 44.81773 20.29136 307 ft 0 kts 303°